Location: Borderline Observatory
(42.7345°N, 72.8696°W)
Time: 15:34:37
(UTC-04:00)

Daily predictions for brighter satellites

Satellite Brightness Start Highest point End
(mag) Time Altitude Azimuth Time Altitude Azimuth Time Altitude Azimuth
CENTAUR R/B 2.7 20:44:59 10° S 20:50:33 46° ESE 20:56:56 10° NE
ERS-1 Rocket 4.4 20:48:41 10° ESE 20:52:29 22° ENE 20:56:20 10° NNE
ERS-2 2.6 20:52:27 10° S 20:56:08 65° WSW 20:59:48 10° NNW
Cosmos 2360 Rocket 2.9 20:51:14 10° NNW 20:56:34 41° ENE 21:01:51 10° SE
Cosmos 2219 Rocket 4.2 20:55:28 10° N 20:58:39 15° NE 21:01:50 10° E
Cosmos 1980 Rocket 4.1 20:54:17 10° NW 20:59:00 28° WSW 21:03:43 10° SSW
Cosmos 1666 3.0 20:58:20 10° NNW 21:02:13 73° W 21:06:04 10° S
Cosmos 1898 Rocket 3.9 20:59:21 10° NNW 21:04:38 67° WSW 21:09:54 10° S
ATLAS 3B R/B 4.2 21:00:10 10° WSW 21:06:55 43° NW 21:13:26 10° NNE
Cosmos 1814 Rocket 4.0 21:02:44 10° SSW 21:07:59 75° ESE 21:13:18 10° NNE
Cosmos 1356 4.3 21:07:27 10° SSE 21:10:33 31° E 21:13:40 10° NNE
Meteor 2-9 Rocket 4.2 21:07:40 10° N 21:13:01 69° ENE 21:18:27 10° SSE
Cosmos 990 Rocket 4.2 21:08:51 10° NNW 21:14:05 76° WSW 21:19:18 10° SSE
Meteor 1-19 Rocket 4.4 21:08:17 10° S 21:14:13 90° W 21:20:09 10° N
Cosmos 1975 4.0 21:10:59 10° NNW 21:14:49 43° W 21:18:36 10° SSW
Aureole 2 Rocket 1.9 21:13:11 10° NNW 21:16:05 64° ENE 21:18:19 14° SSE
Cosmos 1464 Rocket 4.3 21:12:21 10° SSE 21:18:29 52° E 21:24:38 10° NNE
Cosmos 1455 Rocket 3.1 21:15:45 10° N 21:20:06 63° E 21:24:21 11° SSE
Cosmos 1743 3.7 21:16:35 10° NNW 21:20:16 46° W 21:23:55 10° SSW
BREEZE-M R/B 3.9 21:17:25 10° W 21:21:29 39° NNW 21:24:04 10° NE
H-2A R/B 2.4 21:17:08 11° SE 21:21:37 48° ENE 21:26:30 10° N
Iridium 2 3.8 21:19:16 10° S 21:23:05 82° W 21:26:57 10° N
USA 245 4.4 21:23:10 15° SE 21:25:54 33° ENE 21:30:05 10° N
Helios 1A 4.3 21:24:20 13° ESE 21:27:03 25° ENE 21:30:28 10° NNE
Cosmos 2333 Rocket 3.8 21:24:54 10° N 21:29:20 22° NE 21:33:43 10° E
GPS 2-05 Rocket1 4.3 21:27:05 10° SSW 21:29:25 18° SSE 21:30:00 17° SSE
Meteor 2-20 4.5 21:24:20 10° N 21:30:32 88° W 21:36:41 10° S
Cosmos 1975 Rocket 4.1 21:28:16 10° SSW 21:32:26 47° WNW 21:36:37 10° N
COSMOS 2428 3.7 21:27:23 10° N 21:32:32 34° NE 21:36:41 14° ESE
Meteor 2-20 Rocket 4.4 21:29:29 10° N 21:35:40 79° E 21:41:34 11° SSE
Meteor 1-23 Rocket 4.3 21:31:22 10° S 21:36:49 58° E 21:42:16 10° NNE
Cosmos 1833 4.2 21:34:19 10° SSW 21:40:03 85° ESE 21:45:46 10° NNE
ARGOS 3.2 21:37:34 12° SSE 21:42:41 86° WSW 21:48:08 10° NNW
Meteor 2-4 Rocket 3.9 21:38:18 10° SSW 21:43:44 73° W 21:49:23 10° N
Terra 3.4 21:42:40 14° ESE 21:45:18 21° ENE 21:48:52 10° NNE
Cosmos 540 Rocket 3.4 21:41:16 10° S 21:46:24 73° ESE 21:51:35 10° NNE
Helios 1B rocket 3.7 21:43:39 10° NE 21:47:01 24° E 21:48:13 21° ESE
Cosmos 1544 Rocket 3.9 21:43:19 10° NNW 21:47:43 64° W 21:51:53 11° S
Cosmos 1515 3.6 21:44:24 11° S 21:48:05 83° E 21:51:56 10° N
SPOT 5 3.3 21:47:09 21° SE 21:49:46 42° ENE 21:54:09 10° N
Cosmos 2227 Rocket 4.1 21:50:42 11° E 21:50:55 11° E 21:52:35 10° ENE
Cosmos 2322 Rocket 3.6 21:47:05 10° NW 21:52:00 32° WSW 21:56:55 10° SSW
Shenzhou-11 Module 3.2 21:51:27 10° W 21:54:01 26° SSW 21:54:34 24° S
Cosmos 2322 3.7 21:48:33 10° NNW 21:54:20 84° ENE 21:58:16 21° SSE
Lacrosse 5 rocket 1.4 21:50:56 10° NW 21:55:15 69° SW 21:57:27 26° SSE
SJ 16-02 1.3 21:51:30 10° NNW 21:55:58 80° ENE 21:58:37 24° SSE
Abrixas rocket 4.1 21:53:08 10° WNW 21:56:03 30° N 21:58:58 10° ENE
Cosmos 2237 Rocket 4.0 21:52:00 10° N 21:56:12 21° NE 22:00:06 11° E
Tiangong 2 0.9 21:58:36 10° W 22:01:46 85° SSW 22:03:04 32° E
SL-16 R/B 4.0 21:58:16 10° NW 22:02:49 25° WSW 22:07:20 10° SSW
Cosmos 1536 Rocket 3.8 22:01:25 10° SSW 22:05:50 70° W 22:10:18 10° N
Cosmos 1066 Rocket 4.5 22:03:03 23° SSE 22:06:02 45° E 22:11:14 10° NNE
MetOp-B 4.5 22:02:55 15° S 22:07:19 62° WSW 22:12:38 10° NNW
BREEZE M DEB (TANK) 3.5 21:59:10 10° WNW 22:07:35 44° SW 22:09:21 26° S
ISS -0.9 22:06:03 10° NW 22:08:19 17° N 22:10:35 10° NE
Okean 1-7 Rocket 4.4 22:10:55 28° SE 22:12:17 34° E 22:16:24 10° NNE
USA 234 3.4 22:06:56 10° NE 22:13:29 78° NW 22:20:03 10° WSW
Cosmos 372 Rocket 4.0 22:10:03 10° NNW 22:15:11 79° WSW 22:18:02 27° S
Resurs 01 Rocket 4.4 22:13:45 10° WSW 22:15:12 11° W 22:16:38 10° WNW
Cosmos 1544 3.8 22:12:55 10° N 22:16:25 38° ENE 22:17:09 34° ESE
CZ-4C R/B 3.0 22:10:51 10° NNW 22:18:03 75° NE 22:23:08 25° SE
Cosmos 1092 Rocket 4.1 22:16:42 10° N 22:23:02 66° E 22:26:27 28° SSE
Nadezhda 4 Rocket 4.0 22:17:14 10° N 22:23:36 86° W 22:27:44 23° S
Cosmos 2219 3.3 22:20:18 22° S 22:23:52 55° ESE 22:29:28 10° NNE
DELTA 2 R/B (1) 4.0 22:19:34 10° SW 22:24:37 36° SSE 22:26:36 28° ESE
ERS-1 Rocket 3.7 22:27:39 19° SSW 22:30:57 47° W 22:35:49 10° NNW
NOSS 0 Rocket 4.4 22:25:27 10° NNW 22:31:33 51° ENE 22:34:40 28° ESE
Cosmos 2058 Rocket 4.3 22:27:53 10° NNE 22:31:47 28° ENE 22:32:45 26° E
Meteor 1-22 Rocket 4.4 22:28:39 10° N 22:33:51 51° ENE 22:35:46 34° SE
CZ-2C R/B 3.5 22:31:13 10° NNE 22:36:14 33° E 22:37:25 30° ESE
Cosmos 1766 3.9 22:33:15 10° N 22:37:02 40° ENE 22:37:34 38° E
CARTOSAT-1 3.5 22:35:58 44° SSE 22:37:16 74° ENE 22:41:36 10° N
Cosmos 2360 Rocket 3.6 22:35:32 10° NW 22:40:23 30° WSW 22:43:55 16° SSW
CENTAUR R/B 4.0 22:35:36 10° WSW 22:41:19 39° NW 22:47:54 10° NNE
Cosmos 1025 Rocket 3.4 22:40:14 25° SSW 22:42:39 61° W 22:47:01 10° N
Cosmos 2219 Rocket 2.1 22:37:52 10° NNW 22:43:29 84° ENE 22:45:43 38° SSE
Intercosmos 25 4.1 22:47:31 36° E 22:47:31 36° E 22:50:35 10° NNE
Cosmos 2333 4.5 22:42:27 10° NNW 22:48:01 60° WSW 22:50:29 33° S
Cosmos 1538 Rocket 4.4 22:48:36 39° SE 22:49:23 42° ESE 22:54:20 10° NNE
Cosmos 2026 Rocket 4.0 22:44:04 10° N 22:50:12 67° E 22:52:36 38° SSE
CZ-2C R/B 3.2 22:50:58 40° SE 22:52:56 71° ENE 22:58:36 10° N
Cosmos 1606 Rocket 3.5 22:50:44 10° N 22:55:12 85° E 22:56:10 55° SSE
Cosmos 2279 Rocket 4.2 22:53:18 37° SE 22:55:24 52° E 23:01:23 10° NNE
Meteor 1-29 3.2 22:53:21 10° N 22:56:48 65° WNW 22:57:17 56° WSW
SPOT 1/Viking Rocket 4.3 22:55:11 27° SSW 22:57:39 45° W 23:02:36 10° NNW
ERBS 4.2 22:57:39 10° NNW 23:00:29 24° NNE 23:01:19 22° NE
H-2A R/B 4.0 22:57:46 10° SW 23:01:20 20° W 23:05:00 10° NW
Cosmos 1655 Rocket 4.2 22:58:03 10° N 23:04:20 57° E 23:06:29 39° SE
Cosmos 2142 Rocket 4.4 23:06:59 35° S 23:09:46 87° W 23:16:03 10° N
Cosmos 1805 3.2 23:06:08 10° N 23:10:04 69° E 23:10:04 69° E
Cosmos 1842 3.3 23:10:31 65° ENE 23:10:31 65° ENE 23:14:14 10° NNE
Cosmos 2084 Rocket 3.6 23:06:38 10° NNW 23:10:33 52° NE 23:10:53 50° ENE
Mayak 1.0 23:08:16 10° NE 23:09:44 14° ENE 23:09:44 14° ENE
Cosmos 2333 Rocket 2.4 23:08:25 10° NNW 23:14:04 64° WSW 23:15:46 44° S
SL-16 R/B 3.4 23:09:39 10° N 23:14:43 32° NE 23:16:59 24° E
COSMOS 2455 2.9 23:14:03 46° SSE 23:15:33 59° ESE 23:21:29 10° NE
COSMOS 2428 3.7 23:11:36 10° NW 23:16:47 37° WSW 23:18:42 29° SW
Cosmos 1174 4.0 23:13:48 10° NNW 23:16:13 51° NNW 23:16:13 51° NNW
Cosmos 1470 4.2 23:13:42 10° NNE 23:16:43 25° ENE 23:16:43 25° ENE
YAOGAN 11 4.4 23:19:00 50° SW 23:19:47 58° W 23:24:16 10° NNW
Cosmos 1428 Rocket 4.4 23:14:05 10° N 23:20:14 87° E 23:22:12 47° S
Helios 1B rocket 4.2 23:18:42 10° N 23:22:17 29° WNW 23:24:33 18° WSW
Terra 2.6 23:21:33 37° SW 23:22:44 44° W 23:27:18 10° NNW
Cosmos 1980 3.6 23:17:53 10° NNW 23:23:35 88° WSW 23:24:56 54° SSE
H-2A R/B 4.1 23:23:04 16° ENE 23:23:45 17° ENE 23:26:30 10° NNE
Cosmos 773 Rocket 3.8 23:23:50 58° S 23:24:52 82° ESE 23:30:03 10° NNE
Cosmos 2297 Rocket 2.1 23:29:00 55° S 23:30:11 72° ESE 23:35:51 10° NNE
Cosmos 1892 Rocket 4.1 23:31:41 45° WSW 23:32:27 52° W 23:36:43 10° N
Abrixas rocket 3.7 23:30:00 10° NW 23:32:55 34° N 23:32:55 34° N
Cosmos 2227 Rocket 2.1 23:32:28 50° SSW 23:34:01 86° ESE 23:39:43 10° NNE
Cosmos 2266 Rocket 4.4 23:28:39 10° N 23:34:52 52° ENE 23:36:36 41° ESE
Cosmos 1707 4.3 23:37:36 27° ENE 23:37:36 27° ENE 23:40:07 10° NNE
Cosmos 2228 3.5 23:34:05 10° NNW 23:38:15 50° W 23:38:31 49° WSW
Cosmos 2237 Rocket 2.2 23:35:09 10° NNW 23:40:50 70° WSW 23:41:55 56° SSW
Cosmos 1378 4.2 23:42:48 39° NE 23:42:48 39° NE 23:45:30 10° NNE
SAR-Lupe-4 4.3 23:44:23 50° NW 23:44:23 50° NW 23:47:16 10° NNW
Cosmos 1953 2.7 23:39:59 10° N 23:43:28 57° NE 23:43:28 57° NE
ISS -1.7 23:42:53 10° NW 23:45:37 24° NNE 23:46:13 22° NE
Iridium 4 Rocket 3.7 23:46:41 58° S 23:47:55 89° E 23:53:53 10° N
Cosmos 2082 3.6 23:48:07 57° SSW 23:49:21 86° ESE 23:55:07 10° NNE
